GW6880 Weather Reports


Display with metric or nautical units.
time (UTC)temp
F
wind
direction
speed
MPH
gust
MPH
rain 1hr
in
rain 24hr
in
rain mn
in
humidity
%
barometer
mb
20260510033659 77 199 0.0 0.0 0.00 0.14 0.14 83 1010.8
20260510033157 77 221 0.0 0.0 0.00 0.14 0.14 83 1010.8
20260510032653 77 221 0.0 0.0 0.00 0.14 0.14 82 1010.7
20260510032148 78 221 0.0 0.0 0.00 0.14 0.14 81 1010.7
20260510031643 78 221 0.0 0.0 0.00 0.14 0.14 81 1010.5
20260510031141 78 221 0.0 0.0 0.00 0.14 0.14 80 1010.6
20260510030640 79 221 0.0 0.0 0.00 0.14 0.14 79 1010.3
20260510030138 79 220 0.0 0.0 0.00 0.14 0.14 78 1010.5
20260510025635 80 214 0.0 1.0 0.00 0.14 0.14 78 1010.2
20260510025132 80 190 0.0 1.0 0.00 0.14 0.14 78 1010.3
20260510024629 80 196 0.0 1.0 0.00 0.14 0.14 77 1010.2
20260510024126 80 181 2.0 3.0 0.00 0.14 0.14 77 1010.0
20260510023622 81 205 1.0 1.0 0.00 0.14 0.14 77 1010.4
20260510023119 81 217 0.0 3.0 0.00 0.14 0.14 77 1010.0
20260510022619 81 177 3.0 3.0 0.00 0.14 0.14 77 1010.0
20260510022114 81 210 2.0 3.0 0.00 0.14 0.14 77 1009.7
20260510021610 81 126 1.0 2.0 0.00 0.14 0.14 78 1009.8
20260510021109 82 186 1.0 2.0 0.00 0.14 0.14 77 1009.9
20260510020607 82 202 2.0 2.0 0.00 0.14 0.14 77 1010.0
20260510020103 82 165 2.0 3.0 0.00 0.14 0.14 77 1009.6
20260510015559 82 169 1.0 3.0 0.00 0.14 0.14 77 1009.9
20260510015056 82 131 1.0 3.0 0.00 0.14 0.14 77 1009.3
20260510014552 82 117 1.0 3.0 0.00 0.14 0.14 76 1009.7
20260510014049 83 245 2.0 6.0 0.00 0.14 0.14 75 1009.3
20260510013543 83 180 2.0 3.0 0.00 0.14 0.14 75 1009.6
20260510013040 83 194 1.0 2.0 0.00 0.14 0.14 74 1009.3
20260510012533 83 200 1.0 1.0 0.00 0.14 0.14 74 1009.3
20260510012031 83 198 0.0 2.0 0.00 0.14 0.14 73 1009.2
20260510011530 84 200 0.0 1.0 0.00 0.14 0.14 73 1009.3
20260510011026 84 190 0.0 1.0 0.00 0.14 0.14 72 1009.1
20260510010523 84 149 1.0 2.0 0.00 0.14 0.14 72 1009.2
20260510010020 84 127 0.0 1.0 0.00 0.14 0.14 72 1008.8
20260510005515 84 191 0.0 0.0 0.00 0.14 0.14 72 1009.0
20260510005014 85 189 1.0 3.0 0.00 0.14 0.14 71 1009.3
20260510004511 85 184 0.0 2.0 0.00 0.14 0.14 70 1009.1
20260510004009 85 183 0.0 2.0 0.00 0.14 0.14 70 1008.9
20260510003505 85 183 0.0 1.0 0.00 0.14 0.14 69 1009.1
20260510003000 85 211 1.0 3.0 0.00 0.14 0.14 68 1009.0
20260510002456 85 172 2.0 3.0 0.00 0.14 0.14 68 1008.9
20260510001953 85 156 1.0 1.0 0.00 0.14 0.14 68 1008.9
20260510001451 86 74 1.0 2.0 0.00 0.14 0.14 68 1008.7
20260510000948 86 53 0.0 1.0 0.00 0.14 0.14 67 1008.8
20260510000444 86 123 1.0 2.0 0.00 0.14 0.14 66 1008.8
20260509235941 86 71 0.0 2.0 0.00 0.14 0.14 66 1008.7
20260509235437 86 18 2.0 2.0 0.00 0.14 0.14 66 1008.7
20260509234933 86 95 1.0 2.0 0.00 0.14 0.14 66 1008.5
20260509234430 86 113 1.0 3.0 0.00 0.14 0.14 65 1008.6
20260509233929 86 80 1.0 2.0 0.00 0.14 0.14 65 1008.6
20260509233426 86 180 0.0 3.0 0.00 0.14 0.14 64 1008.6
20260509232922 86 143 1.0 2.0 0.00 0.14 0.14 64 1008.4
20260509232420 86 138 1.0 2.0 0.00 0.14 0.14 63 1008.4
20260509231915 86 60 0.0 3.0 0.00 0.14 0.14 63 1008.5
20260509231412 86 22 1.0 3.0 0.00 0.14 0.14 63 1008.6
20260509230910 86 146 1.0 5.0 0.00 0.14 0.14 63 1008.5
20260509230407 86 24 1.0 2.0 0.00 0.14 0.14 62 1008.5
20260509225902 86 133 0.0 2.0 0.00 0.14 0.14 62 1008.6
20260509225359 86 92 0.0 3.0 0.00 0.14 0.14 61 1008.4
20260509224855 86 91 1.0 5.0 0.00 0.14 0.14 61 1008.6
20260509224351 86 159 1.0 2.0 0.00 0.14 0.14 60 1008.5
20260509223849 86 94 1.0 3.0 0.00 0.14 0.14 60 1008.3
20260509223345 86 165 2.0 3.0 0.00 0.14 0.14 58 1008.4
20260509222843 87 274 2.0 5.0 0.00 0.14 0.14 57 1008.4
20260509222343 87 119 1.0 2.0 0.00 0.14 0.14 54 1008.6
20260509221838 87 0 1.0 3.0 0.00 0.14 0.14 53 1008.5
20260509221337 87 79 0.0 1.0 0.00 0.14 0.14 53 1008.3
20260509220837 86 19 1.0 1.0 0.00 0.14 0.14 52 1008.3
20260509220333 87 190 1.0 3.0 0.00 0.14 0.14 52 1008.4
20260509215828 86 29 0.0 1.0 0.00 0.14 0.14 51 1008.3
20260509215326 86 92 2.0 2.0 0.00 0.14 0.14 53 1008.4
20260509214822 86 255 0.0 2.0 0.00 0.14 0.14 52 1008.7
20260509214319 85 279 0.0 2.0 0.00 0.14 0.14 52 1008.6
20260509213817 85 80 1.0 2.0 0.00 0.14 0.14 52 1008.8
20260509213312 84 170 2.0 6.0 0.00 0.14 0.14 54 1008.8
20260509212810 84 77 2.0 3.0 0.00 0.14 0.14 53 1008.9
20260509212307 83 239 1.0 2.0 0.00 0.14 0.14 55 1008.8
20260509211802 82 298 1.0 2.0 0.00 0.14 0.14 61 1008.9
20260509211259 81 281 1.0 3.0 0.00 0.14 0.14 61 1009.2
20260509210756 82 272 1.0 3.0 0.00 0.14 0.14 62 1009.2
20260509210254 81 220 1.0 2.0 0.00 0.14 0.14 66 1009.1
20260509205753 80 283 1.0 2.0 0.00 0.14 0.14 68 1009.1
20260509205248 78 271 2.0 3.0 0.00 0.14 0.14 71 1009.0
20260509204744 75 251 2.0 3.0 0.00 0.14 0.14 75 1009.0
20260509204240 74 106 1.0 6.0 0.00 0.14 0.14 81 1009.2
20260509203736 73 246 1.0 5.0 0.00 0.14 0.14 86 1009.4
20260509203235 73 216 1.0 9.0 0.00 0.14 0.14 88 1009.3
20260509202730 72 316 3.0 7.0 0.24 0.14 0.14 90 1009.3
20260509202226 74 158 3.0 10.0 0.35 0.14 0.14 88 1009.9
20260509201721 74 198 3.0 6.0 0.12 0.08 0.08 81 1009.8
20260509201218 77 75 5.0 13.0 0.31 0.08 0.08 82 1009.6
20260509200714 81 136 5.0 11.0 0.19 0.06 0.06 80 1009.7
20260509200209 83 69 5.0 10.0 0.00 0.03 0.03 71 1010.1
20260509195705 88 43 7.0 10.0 0.00 0.03 0.03 66 1009.8
20260509195201 88 106 2.0 6.0 0.00 0.03 0.03 66 1009.6
20260509194701 88 19 2.0 6.0 0.00 0.03 0.03 67 1009.6
20260509194158 89 80 3.0 3.0 0.00 0.03 0.03 64 1009.7
20260509193654 91 327 0.0 0.0 0.00 0.03 0.03 60 1009.5
20260509193149 92 302 0.0 0.0 0.00 0.03 0.03 59 1009.6
20260509192646 92 207 0.0 1.0 0.00 0.03 0.03 56 1009.8
20260509192141 92 308 0.0 1.0 0.00 0.03 0.03 59 1009.7
20260509191641 92 283 0.0 1.0 0.00 0.03 0.03 58 1009.6
20260509191138 91 259 0.0 2.0 0.00 0.03 0.03 61 1009.8
20260509190635 90 255 1.0 3.0 0.00 0.03 0.03 62 1009.9
20260509190132 90 10 0.0 1.0 0.00 0.03 0.03 64 1009.9
20260509185630 89 305 0.0 2.0 0.00 0.03 0.03 64 1010.0
20260509185125 89 285 1.0 3.0 0.00 0.03 0.03 64 1010.0
20260509184624 89 267 1.0 3.0 0.00 0.03 0.03 66 1010.0
20260509184120 89 211 3.0 5.0 0.00 0.03 0.03 66 1010.3
20260509183616 88 180 1.0 2.0 0.00 0.03 0.03 66 1010.2
20260509183111 89 29 2.0 5.0 0.00 0.03 0.03 65 1010.6
20260509182608 90 273 1.0 2.0 0.00 0.03 0.03 64 1010.5
20260509182105 90 274 0.0 1.0 0.00 0.03 0.03 66 1010.7
20260509181603 89 52 0.0 2.0 0.00 0.03 0.03 66 1011.0
20260509181100 91 268 1.0 2.0 0.00 0.03 0.03 64 1010.7
20260509180555 89 228 1.0 2.0 0.00 0.03 0.03 66 1010.7
20260509180053 90 281 1.0 2.0 0.00 0.03 0.03 66 1010.6
20260509175548 89 259 2.0 3.0 0.00 0.03 0.03 66 1011.0
20260509175046 89 152 1.0 2.0 0.00 0.03 0.03 65 1010.9
20260509174542 88 231 2.0 5.0 0.00 0.03 0.03 69 1011.0
20260509174038 89 288 0.0 1.0 0.00 0.03 0.03 68 1011.2
20260509173538 88 247 0.0 1.0 0.00 0.03 0.03 70 1011.4
20260509173034 88 290 0.0 2.0 0.00 0.03 0.03 70 1011.6
20260509172531 87 226 3.0 5.0 0.00 0.03 0.03 70 1011.5
20260509172027 87 175 1.0 1.0 0.00 0.03 0.03 71 1011.5
20260509171523 88 141 1.0 1.0 0.00 0.03 0.03 71 1011.4
20260509171020 86 264 0.0 1.0 0.00 0.03 0.03 74 1011.2
20260509170515 86 257 0.0 2.0 0.00 0.03 0.03 75 1011.3
20260509170012 85 246 1.0 1.0 0.00 0.03 0.03 76 1011.4
20260509165510 85 187 1.0 5.0 0.00 0.03 0.03 76 1011.4
20260509165006 85 206 1.0 1.0 0.00 0.03 0.03 77 1011.7
20260509164502 84 303 0.0 0.0 0.00 0.03 0.03 78 1011.7
20260509163958 84 266 0.0 1.0 0.00 0.03 0.03 77 1011.7
20260509163456 84 260 0.0 1.0 0.00 0.03 0.03 78 1011.6
20260509162955 83 257 0.0 1.0 0.00 0.03 0.03 78 1011.8
20260509162454 84 260 1.0 2.0 0.00 0.03 0.03 78 1011.7
20260509161949 84 284 0.0 1.0 0.00 0.03 0.03 78 1011.6
20260509161446 84 305 0.0 1.0 0.00 0.03 0.03 79 1011.7
20260509160941 83 298 0.0 3.0 0.00 0.03 0.03 80 1011.7
20260509160437 82 197 1.0 3.0 0.00 0.03 0.03 81 1011.7
20260509155932 82 226 1.0 2.0 0.00 0.03 0.03 82 1011.6
20260509155430 81 274 0.0 1.0 0.00 0.03 0.03 87 1011.5
20260509154926 79 287 0.0 1.0 0.00 0.03 0.03 91 1011.7
20260509154422 78 168 0.0 0.0 0.00 0.03 0.03 94 1011.5
20260509153919 78 239 0.0 0.0 0.00 0.03 0.03 98 1011.3
20260509153416 76 312 0.0 1.0 0.00 0.03 0.03 99 1011.5
20260509152913 76 284 0.0 2.0 0.00 0.03 0.03 99 1011.5
20260509152409 76 253 1.0 2.0 0.00 0.03 0.03 99 1011.8
20260509151906 76 269 2.0 3.0 0.00 0.03 0.03 99 1011.7
20260509151402 76 281 0.0 3.0 0.00 0.03 0.03 99 1011.4
20260509150901 75 203 0.0 5.0 0.00 0.03 0.03 99 1011.6
20260509150358 75 283 0.0 2.0 0.00 0.03 0.03 99 1011.8
20260509145856 75 348 0.0 2.0 0.00 0.03 0.03 99 1011.7
20260509145350 74 206 0.0 1.0 0.00 0.03 0.03 99 1011.7
20260509144847 74 155 1.0 2.0 0.00 0.03 0.03 99 1011.6
20260509144343 75 226 2.0 2.0 0.00 0.03 0.03 99 1011.5
20260509143841 74 255 0.0 1.0 0.00 0.03 0.03 99 1011.2
20260509143338 74 225 2.0 2.0 0.00 0.03 0.03 99 1011.3
20260509142834 73 220 2.0 2.0 0.00 0.03 0.03 99 1011.3
20260509142330 74 165 2.0 3.0 0.00 0.03 0.03 99 1011.2
20260509141826 74 155 0.0 2.0 0.00 0.03 0.03 99 1010.8
20260509141328 73 211 0.0 1.0 0.00 0.03 0.03 99 1011.0
20260509140820 73 175 1.0 2.0 0.00 0.03 0.03 99 1011.2
20260509140317 73 224 0.0 2.0 0.00 0.03 0.03 99 1011.3
20260509135815 74 197 1.0 1.0 0.00 0.03 0.03 99 1011.5
20260509135312 73 235 0.0 1.0 0.00 0.03 0.03 99 1011.6
20260509134809 73 282 0.0 0.0 0.00 0.03 0.03 99 1011.5
20260509134307 73 287 0.0 0.0 0.00 0.03 0.03 99 1011.6
20260509133803 73 286 0.0 0.0 0.00 0.03 0.03 99 1011.5
20260509133300 73 286 0.0 0.0 0.00 0.03 0.03 99 1011.3
20260509132759 73 287 0.0 0.0 0.00 0.03 0.03 99 1011.3
20260509132257 73 286 0.0 0.0 0.00 0.03 0.03 99 1011.5
20260509131753 73 285 0.0 0.0 0.00 0.03 0.03 99 1011.6
20260509131250 73 286 0.0 0.0 0.00 0.03 0.03 99 1011.4
20260509130746 73 283 0.0 0.0 0.00 0.03 0.03 99 1011.4
20260509130242 73 299 0.0 0.0 0.00 0.03 0.03 99 1011.4
20260509125739 73 299 0.0 0.0 0.00 0.03 0.03 99 1011.0
20260509125236 73 293 0.0 0.0 0.00 0.03 0.03 99 1010.9
20260509124732 73 285 0.0 0.0 0.00 0.03 0.03 99 1010.8
20260509124229 73 285 0.0 0.0 0.00 0.03 0.03 99 1010.6
20260509123727 73 285 0.0 0.0 0.00 0.03 0.03 99 1011.1
20260509123224 73 285 0.0 0.0 0.00 0.03 0.03 99 1011.0
20260509122719 73 285 0.0 0.0 0.00 0.03 0.03 99 1011.0
20260509122216 73 285 0.0 0.0 0.00 0.03 0.03 99 1010.9
20260509121713 73 284 0.0 0.0 0.00 0.03 0.03 99 1010.9
20260509121211 73 282 0.0 0.0 0.00 0.03 0.03 99 1011.0
20260509120709 73 291 0.0 0.0 0.00 0.03 0.03 99 1011.3
20260509120206 73 290 0.0 0.0 0.00 0.03 0.03 99 1011.5
20260509115704 73 297 0.0 0.0 0.00 0.03 0.03 99 1011.1
20260509115201 73 293 0.0 0.0 0.00 0.03 0.03 99 1011.1
20260509114659 73 294 0.0 0.0 0.00 0.03 0.03 99 1011.1
20260509114158 73 299 0.0 0.0 0.00 0.03 0.03 99 1011.1
20260509113656 73 296 0.0 0.0 0.00 0.03 0.03 99 1011.4
20260509113153 73 320 0.0 1.0 0.00 0.03 0.03 99 1011.6
20260509112649 73 301 0.0 0.0 0.00 0.03 0.03 99 1011.9
20260509112146 73 312 0.0 0.0 0.00 0.03 0.03 99 1011.8
20260509111644 73 309 0.0 0.0 0.05 0.03 0.03 99 1011.5
20260509111140 73 298 0.0 0.0 0.00 0.02 0.02 99 1011.7
20260509110637 73 298 0.0 0.0 0.00 0.02 0.02 99 1012.0
20260509110134 73 298 0.0 0.0 0.00 0.02 0.02 99 1012.0
20260509105633 73 15 0.0 0.0 0.00 0.02 0.02 99 1011.8
20260509105130 73 337 0.0 2.0 0.00 0.02 0.02 99 1012.1
20260509104627 73 345 0.0 1.0 0.00 0.02 0.02 99 1012.2
20260509104123 73 318 0.0 0.0 0.00 0.02 0.02 99 1012.0
20260509103621 73 326 0.0 0.0 0.00 0.02 0.02 99 1012.1
20260509103119 73 342 0.0 0.0 0.00 0.02 0.02 99 1012.0
20260509102616 73 328 0.0 0.0 0.00 0.02 0.02 99 1012.0
20260509102113 73 315 0.0 0.0 0.00 0.02 0.02 99 1011.8
20260509101609 73 319 0.0 0.0 0.00 0.02 0.02 99 1011.6
20260509101106 73 269 0.0 0.0 0.00 0.02 0.02 99 1011.3
20260509100603 73 266 0.0 0.0 0.00 0.02 0.02 99 1011.2
20260509100101 73 263 0.0 0.0 0.00 0.02 0.02 99 1010.7
20260509095557 73 268 0.0 0.0 0.00 0.02 0.02 99 1010.8
20260509095055 73 269 0.0 0.0 0.00 0.02 0.02 99 1010.8
20260509094550 73 269 0.0 0.0 0.00 0.02 0.02 99 1010.7
20260509094048 73 270 0.0 0.0 0.00 0.02 0.02 99 1010.8
20260509093547 73 268 0.0 0.0 0.00 0.02 0.02 99 1010.8
20260509093043 73 269 0.0 0.0 0.00 0.02 0.02 99 1010.7
20260509092541 73 262 0.0 0.0 0.00 0.02 0.02 99 1011.1
20260509092040 73 262 0.0 0.0 0.00 0.02 0.02 99 1010.7
20260509091537 73 329 0.0 0.0 0.00 0.02 0.02 99 1010.5
20260509091033 73 269 0.0 0.0 0.07 0.02 0.02 99 1010.6
20260509090531 73 270 0.0 0.0 0.07 0.02 0.02 99 1010.7
20260509090029 73 249 0.0 0.0 0.00 0.01 0.01 99 1010.6
20260509085525 73 241 0.0 1.0 0.00 0.01 0.01 98 1010.5
20260509085021 73 269 0.0 0.0 0.00 0.01 0.01 98 1010.7
20260509084519 73 264 0.0 0.0 0.07 0.01 0.01 98 1010.7
20260509084016 73 320 0.0 0.0 0.07 0.01 0.01 98 1010.9
20260509083513 73 33 0.0 1.0 0.00 0.00 0.00 98 1010.8
20260509083009 73 41 1.0 1.0 0.00 0.00 0.00 98 1010.8
20260509082507 73 24 1.0 1.0 0.00 0.00 0.00 97 1011.1
20260509082004 73 13 0.0 1.0 0.00 0.00 0.00 97 1011.1
20260509081501 74 359 0.0 0.0 0.00 0.00 0.00 97 1011.4
20260509080958 73 322 0.0 0.0 0.00 0.00 0.00 97 1011.2
20260509080456 74 96 0.0 0.0 0.00 0.00 0.00 97 1010.9
20260509075954 73 54 1.0 2.0 0.00 0.00 0.00 97 1011.0
20260509075451 74 314 0.0 0.0 0.00 0.00 0.00 97 1011.1
20260509074949 74 74 0.0 1.0 0.00 0.00 0.00 96 1010.8
20260509074446 74 113 0.0 1.0 0.00 0.00 0.00 96 1010.8
20260509073942 74 32 0.0 1.0 0.00 0.00 0.00 96 1010.7
20260509073438 74 211 0.0 1.0 0.00 0.00 0.00 96 1011.0
20260509072935 74 196 0.0 1.0 0.00 0.00 0.00 96 1011.1
20260509072432 74 164 1.0 1.0 0.00 0.00 0.00 96 1011.0
20260509071928 74 337 0.0 0.0 0.00 0.00 0.00 96 1011.0
20260509071425 74 235 0.0 1.0 0.00 0.00 0.00 96 1011.1
20260509070923 74 248 0.0 0.0 0.00 0.00 0.00 96 1011.1
20260509070420 74 245 0.0 0.0 0.00 0.00 0.00 96 1011.2
20260509065915 74 245 0.0 0.0 0.00 0.00 0.00 96 1011.3
20260509065411 74 245 0.0 2.0 0.00 0.00 0.00 96 1010.8
20260509064908 74 169 0.0 1.0 0.00 0.00 0.00 96 1010.8
20260509064405 74 231 0.0 2.0 0.00 0.00 0.00 96 1010.8
20260509063903 74 170 1.0 2.0 0.00 0.00 0.00 95 1010.6
20260509063359 74 307 0.0 2.0 0.00 0.00 0.00 95 1010.7
20260509062856 74 230 0.0 1.0 0.00 0.00 0.00 95 1010.9
20260509062353 74 291 0.0 0.0 0.00 0.00 0.00 95 1011.1
20260509061850 74 232 0.0 2.0 0.00 0.00 0.00 95 1011.0
20260509061349 73 200 1.0 2.0 0.00 0.00 0.00 95 1011.0
20260509060845 73 217 1.0 2.0 0.00 0.00 0.00 95 1010.6
20260509060342 74 213 2.0 2.0 0.00 0.00 0.00 94 1010.6
20260509055837 74 141 2.0 3.0 0.00 0.00 0.00 94 1010.6
20260509055333 74 203 3.0 6.0 0.00 0.00 0.00 94 1010.6
20260509054830 74 213 2.0 5.0 0.00 0.00 0.00 93 1010.9
20260509054327 74 228 1.0 2.0 0.00 0.00 0.00 93 1010.7
20260509053825 74 183 2.0 3.0 0.00 0.00 0.00 93 1010.8
20260509053322 74 217 1.0 3.0 0.00 0.00 0.00 93 1010.8
20260509052820 74 229 1.0 5.0 0.00 0.00 0.00 92 1010.9
20260509052317 74 211 2.0 3.0 0.00 0.00 0.00 92 1010.5
20260509051815 74 209 1.0 2.0 0.00 0.00 0.00 92 1010.5
20260509051313 74 192 1.0 3.0 0.00 0.00 0.00 92 1010.3
20260509050809 74 140 0.0 3.0 0.00 0.00 0.00 92 1009.9
20260509050306 75 207 1.0 2.0 0.00 0.00 0.00 92 1010.3
20260509045803 75 168 3.0 5.0 0.00 0.00 0.00 92 1010.4
20260509045300 75 207 1.0 2.0 0.00 0.00 0.00 92 1010.2
20260509044757 75 170 1.0 1.0 0.00 0.00 0.00 91 1010.4
20260509044255 75 206 1.0 2.0 0.00 0.00 0.00 91 1010.3
20260509043751 75 205 0.0 1.0 0.00 0.00 0.00 91 1010.3
20260509043247 75 174 1.0 3.0 0.00 0.00 0.00 90 1010.3
20260509042743 75 216 0.0 2.0 0.00 0.00 0.00 90 1010.4
20260509042239 75 204 0.0 2.0 0.00 0.00 0.00 89 1010.5
20260509041736 76 120 2.0 3.0 0.00 0.00 0.00 89 1010.5
20260509041233 76 190 2.0 3.0 0.00 0.00 0.00 89 1010.6
20260509040732 76 228 0.0 3.0 0.00 0.00 0.00 89 1010.6
20260509040228 76 221 0.0 0.0 0.00 0.00 0.00 89 1010.8
20260509035725 76 207 0.0 1.0 0.00 0.00 0.00 88 1010.6
20260509035222 76 208 1.0 2.0 0.00 0.00 0.00 88 1010.5
20260509034719 76 217 0.0 1.0 0.00 0.00 0.00 88 1010.5
20260509034217 76 241 0.0 0.0 0.00 0.00 0.00 88 1010.6